Index of /20260411/WXO-DD/model_gdps/15km/12/147
Name Last modified Size Description
Parent Directory -
20260411T12Z_MSC_GDPS_AirTemp_AGL-120m_LatLon0.15_PT147H.grib2 2026-04-11 16:46 918K
20260411T12Z_MSC_GDPS_AirTemp_AGL-2m_LatLon0.15_PT147H.grib2 2026-04-11 16:46 1.0M
20260411T12Z_MSC_GDPS_AirTemp_AGL-40m_LatLon0.15_PT147H.grib2 2026-04-11 16:46 820K
20260411T12Z_MSC_GDPS_AirTemp_AGL-80m_LatLon0.15_PT147H.grib2 2026-04-11 16:46 927K
20260411T12Z_MSC_GDPS_AirTemp_IsbL-0001_LatLon0.15_PT147H.grib2 2026-04-11 16:46 697K
20260411T12Z_MSC_GDPS_AirTemp_IsbL-0005_LatLon0.15_PT147H.grib2 2026-04-11 16:46 679K
20260411T12Z_MSC_GDPS_AirTemp_IsbL-0010_LatLon0.15_PT147H.grib2 2026-04-11 16:46 749K
20260411T12Z_MSC_GDPS_AirTemp_IsbL-0020_LatLon0.15_PT147H.grib2 2026-04-11 16:46 694K
20260411T12Z_MSC_GDPS_AirTemp_IsbL-0030_LatLon0.15_PT147H.grib2 2026-04-11 16:46 747K
20260411T12Z_MSC_GDPS_AirTemp_IsbL-0050_LatLon0.15_PT147H.grib2 2026-04-11 16:46 813K
20260411T12Z_MSC_GDPS_AirTemp_IsbL-0100_LatLon0.15_PT147H.grib2 2026-04-11 16:46 953K
20260411T12Z_MSC_GDPS_AirTemp_IsbL-0150_LatLon0.15_PT147H.grib2 2026-04-11 16:46 964K
20260411T12Z_MSC_GDPS_AirTemp_IsbL-0175_LatLon0.15_PT147H.grib2 2026-04-11 16:46 956K
20260411T12Z_MSC_GDPS_AirTemp_IsbL-0200_LatLon0.15_PT147H.grib2 2026-04-11 16:46 966K
20260411T12Z_MSC_GDPS_AirTemp_IsbL-0225_LatLon0.15_PT147H.grib2 2026-04-11 16:46 1.0M
20260411T12Z_MSC_GDPS_AirTemp_IsbL-0250_LatLon0.15_PT147H.grib2 2026-04-11 16:46 1.0M
20260411T12Z_MSC_GDPS_AirTemp_IsbL-0275_LatLon0.15_PT147H.grib2 2026-04-11 16:46 1.0M
20260411T12Z_MSC_GDPS_AirTemp_IsbL-0300_LatLon0.15_PT147H.grib2 2026-04-11 16:46 1.0M
20260411T12Z_MSC_GDPS_AirTemp_IsbL-0350_LatLon0.15_PT147H.grib2 2026-04-11 16:46 927K
20260411T12Z_MSC_GDPS_AirTemp_IsbL-0400_LatLon0.15_PT147H.grib2 2026-04-11 16:46 940K
20260411T12Z_MSC_GDPS_AirTemp_IsbL-0450_LatLon0.15_PT147H.grib2 2026-04-11 16:46 959K
20260411T12Z_MSC_GDPS_AirTemp_IsbL-0500_LatLon0.15_PT147H.grib2 2026-04-11 16:46 1.0M
20260411T12Z_MSC_GDPS_AirTemp_IsbL-0550_LatLon0.15_PT147H.grib2 2026-04-11 16:46 1.0M
20260411T12Z_MSC_GDPS_AirTemp_IsbL-0600_LatLon0.15_PT147H.grib2 2026-04-11 16:46 890K
20260411T12Z_MSC_GDPS_AirTemp_IsbL-0650_LatLon0.15_PT147H.grib2 2026-04-11 16:46 922K
20260411T12Z_MSC_GDPS_AirTemp_IsbL-0700_LatLon0.15_PT147H.grib2 2026-04-11 16:46 959K
20260411T12Z_MSC_GDPS_AirTemp_IsbL-0750_LatLon0.15_PT147H.grib2 2026-04-11 16:46 1.0M
20260411T12Z_MSC_GDPS_AirTemp_IsbL-0800_LatLon0.15_PT147H.grib2 2026-04-11 16:46 1.1M
20260411T12Z_MSC_GDPS_AirTemp_IsbL-0850_LatLon0.15_PT147H.grib2 2026-04-11 16:46 1.1M
20260411T12Z_MSC_GDPS_AirTemp_IsbL-0875_LatLon0.15_PT147H.grib2 2026-04-11 16:46 1.2M
20260411T12Z_MSC_GDPS_AirTemp_IsbL-0900_LatLon0.15_PT147H.grib2 2026-04-11 16:46 1.2M
20260411T12Z_MSC_GDPS_AirTemp_IsbL-0925_LatLon0.15_PT147H.grib2 2026-04-11 16:46 1.1M
20260411T12Z_MSC_GDPS_AirTemp_IsbL-0950_LatLon0.15_PT147H.grib2 2026-04-11 16:46 1.1M
20260411T12Z_MSC_GDPS_AirTemp_IsbL-0970_LatLon0.15_PT147H.grib2 2026-04-11 16:46 1.2M
20260411T12Z_MSC_GDPS_AirTemp_IsbL-0985_LatLon0.15_PT147H.grib2 2026-04-11 16:46 1.1M
20260411T12Z_MSC_GDPS_AirTemp_IsbL-1000_LatLon0.15_PT147H.grib2 2026-04-11 16:46 1.1M
20260411T12Z_MSC_GDPS_AirTemp_IsbL-1015_LatLon0.15_PT147H.grib2 2026-04-11 16:46 1.1M
20260411T12Z_MSC_GDPS_Albedo_Sfc_LatLon0.15_PT147H.grib2 2026-04-11 16:46 246K
20260411T12Z_MSC_GDPS_CAPE_Sfc_LatLon0.15_PT147H.grib2 2026-04-11 16:46 3.7M
20260411T12Z_MSC_GDPS_CIN_Sfc_LatLon0.15_PT147H.grib2 2026-04-11 16:46 2.9M
20260411T12Z_MSC_GDPS_ConvectivePrecip-Accum_Sfc_LatLon0.15_PT147H.grib2 2026-04-11 16:46 3.3M
20260411T12Z_MSC_GDPS_DewPointDepression_AGL-2m_LatLon0.15_PT147H.grib2 2026-04-11 16:46 754K
20260411T12Z_MSC_GDPS_DewPointDepression_IsbL-0010_LatLon0.15_PT147H.grib2 2026-04-11 16:46 3.8K
20260411T12Z_MSC_GDPS_DewPointDepression_IsbL-0020_LatLon0.15_PT147H.grib2 2026-04-11 16:46 73K
20260411T12Z_MSC_GDPS_DewPointDepression_IsbL-0030_LatLon0.15_PT147H.grib2 2026-04-11 16:46 72K
20260411T12Z_MSC_GDPS_DewPointDepression_IsbL-0050_LatLon0.15_PT147H.grib2 2026-04-11 16:46 357K
20260411T12Z_MSC_GDPS_DewPointDepression_IsbL-0100_LatLon0.15_PT147H.grib2 2026-04-11 16:46 375K
20260411T12Z_MSC_GDPS_DewPointDepression_IsbL-0150_LatLon0.15_PT147H.grib2 2026-04-11 16:46 459K
20260411T12Z_MSC_GDPS_DewPointDepression_IsbL-0175_LatLon0.15_PT147H.grib2 2026-04-11 16:46 534K
20260411T12Z_MSC_GDPS_DewPointDepression_IsbL-0200_LatLon0.15_PT147H.grib2 2026-04-11 16:46 613K
20260411T12Z_MSC_GDPS_DewPointDepression_IsbL-0225_LatLon0.15_PT147H.grib2 2026-04-11 16:46 768K
20260411T12Z_MSC_GDPS_DewPointDepression_IsbL-0250_LatLon0.15_PT147H.grib2 2026-04-11 16:46 871K
20260411T12Z_MSC_GDPS_DewPointDepression_IsbL-0275_LatLon0.15_PT147H.grib2 2026-04-11 16:46 887K
20260411T12Z_MSC_GDPS_DewPointDepression_IsbL-0300_LatLon0.15_PT147H.grib2 2026-04-11 16:46 924K
20260411T12Z_MSC_GDPS_DewPointDepression_IsbL-0350_LatLon0.15_PT147H.grib2 2026-04-11 16:46 960K
20260411T12Z_MSC_GDPS_DewPointDepression_IsbL-0400_LatLon0.15_PT147H.grib2 2026-04-11 16:46 1.0M
20260411T12Z_MSC_GDPS_DewPointDepression_IsbL-0450_LatLon0.15_PT147H.grib2 2026-04-11 16:46 1.0M
20260411T12Z_MSC_GDPS_DewPointDepression_IsbL-0500_LatLon0.15_PT147H.grib2 2026-04-11 16:46 1.0M
20260411T12Z_MSC_GDPS_DewPointDepression_IsbL-0550_LatLon0.15_PT147H.grib2 2026-04-11 16:46 1.0M
20260411T12Z_MSC_GDPS_DewPointDepression_IsbL-0600_LatLon0.15_PT147H.grib2 2026-04-11 16:46 1.1M
20260411T12Z_MSC_GDPS_DewPointDepression_IsbL-0650_LatLon0.15_PT147H.grib2 2026-04-11 16:46 1.1M
20260411T12Z_MSC_GDPS_DewPointDepression_IsbL-0700_LatLon0.15_PT147H.grib2 2026-04-11 16:46 1.1M
20260411T12Z_MSC_GDPS_DewPointDepression_IsbL-0750_LatLon0.15_PT147H.grib2 2026-04-11 16:46 1.1M
20260411T12Z_MSC_GDPS_DewPointDepression_IsbL-0800_LatLon0.15_PT147H.grib2 2026-04-11 16:46 1.2M
20260411T12Z_MSC_GDPS_DewPointDepression_IsbL-0850_LatLon0.15_PT147H.grib2 2026-04-11 16:46 1.2M
20260411T12Z_MSC_GDPS_DewPointDepression_IsbL-0875_LatLon0.15_PT147H.grib2 2026-04-11 16:46 1.1M
20260411T12Z_MSC_GDPS_DewPointDepression_IsbL-0900_LatLon0.15_PT147H.grib2 2026-04-11 16:46 1.1M
20260411T12Z_MSC_GDPS_DewPointDepression_IsbL-0925_LatLon0.15_PT147H.grib2 2026-04-11 16:46 1.0M
20260411T12Z_MSC_GDPS_DewPointDepression_IsbL-0950_LatLon0.15_PT147H.grib2 2026-04-11 16:46 1.0M
20260411T12Z_MSC_GDPS_DewPointDepression_IsbL-0970_LatLon0.15_PT147H.grib2 2026-04-11 16:46 1.0M
20260411T12Z_MSC_GDPS_DewPointDepression_IsbL-0985_LatLon0.15_PT147H.grib2 2026-04-11 16:46 1.0M
20260411T12Z_MSC_GDPS_DewPointDepression_IsbL-1000_LatLon0.15_PT147H.grib2 2026-04-11 16:46 971K
20260411T12Z_MSC_GDPS_DewPointDepression_IsbL-1015_LatLon0.15_PT147H.grib2 2026-04-11 16:46 915K
20260411T12Z_MSC_GDPS_DewPoint_AGL-2m_LatLon0.15_PT147H.grib2 2026-04-11 16:46 620K
20260411T12Z_MSC_GDPS_DownwardLongwaveRadiationFlux-Accum_Sfc_LatLon0.15_PT147H.grib2 2026-04-11 16:46 842K
20260411T12Z_MSC_GDPS_DownwardShortwaveRadiationFlux-Accum_Sfc_LatLon0.15_PT147H.grib2 2026-04-11 16:46 1.0M
20260411T12Z_MSC_GDPS_FreezingRain-Accum3h_Sfc_LatLon0.15_PT147H.grib2 2026-04-11 16:46 53K
20260411T12Z_MSC_GDPS_FreezingRain-Accum_Sfc_LatLon0.15_PT147H.grib2 2026-04-11 16:46 260K
20260411T12Z_MSC_GDPS_GeopotentialHeight_IsbL-0001_LatLon0.15_PT147H.grib2 2026-04-11 16:46 535K
20260411T12Z_MSC_GDPS_GeopotentialHeight_IsbL-0005_LatLon0.15_PT147H.grib2 2026-04-11 16:46 505K
20260411T12Z_MSC_GDPS_GeopotentialHeight_IsbL-0010_LatLon0.15_PT147H.grib2 2026-04-11 16:46 435K
20260411T12Z_MSC_GDPS_GeopotentialHeight_IsbL-0020_LatLon0.15_PT147H.grib2 2026-04-11 16:46 576K
20260411T12Z_MSC_GDPS_GeopotentialHeight_IsbL-0030_LatLon0.15_PT147H.grib2 2026-04-11 16:46 582K
20260411T12Z_MSC_GDPS_GeopotentialHeight_IsbL-0050_LatLon0.15_PT147H.grib2 2026-04-11 16:46 581K
20260411T12Z_MSC_GDPS_GeopotentialHeight_IsbL-0100_LatLon0.15_PT147H.grib2 2026-04-11 16:46 621K
20260411T12Z_MSC_GDPS_GeopotentialHeight_IsbL-0150_LatLon0.15_PT147H.grib2 2026-04-11 16:46 637K
20260411T12Z_MSC_GDPS_GeopotentialHeight_IsbL-0175_LatLon0.15_PT147H.grib2 2026-04-11 16:46 639K
20260411T12Z_MSC_GDPS_GeopotentialHeight_IsbL-0200_LatLon0.15_PT147H.grib2 2026-04-11 16:46 642K
20260411T12Z_MSC_GDPS_GeopotentialHeight_IsbL-0225_LatLon0.15_PT147H.grib2 2026-04-11 16:46 643K
20260411T12Z_MSC_GDPS_GeopotentialHeight_IsbL-0250_LatLon0.15_PT147H.grib2 2026-04-11 16:46 646K
20260411T12Z_MSC_GDPS_GeopotentialHeight_IsbL-0275_LatLon0.15_PT147H.grib2 2026-04-11 16:46 646K
20260411T12Z_MSC_GDPS_GeopotentialHeight_IsbL-0300_LatLon0.15_PT147H.grib2 2026-04-11 16:46 644K
20260411T12Z_MSC_GDPS_GeopotentialHeight_IsbL-0350_LatLon0.15_PT147H.grib2 2026-04-11 16:46 632K
20260411T12Z_MSC_GDPS_GeopotentialHeight_IsbL-0400_LatLon0.15_PT147H.grib2 2026-04-11 16:46 623K
20260411T12Z_MSC_GDPS_GeopotentialHeight_IsbL-0450_LatLon0.15_PT147H.grib2 2026-04-11 16:46 543K
20260411T12Z_MSC_GDPS_GeopotentialHeight_IsbL-0500_LatLon0.15_PT147H.grib2 2026-04-11 16:46 533K
20260411T12Z_MSC_GDPS_GeopotentialHeight_IsbL-0550_LatLon0.15_PT147H.grib2 2026-04-11 16:46 693K
20260411T12Z_MSC_GDPS_GeopotentialHeight_IsbL-0600_LatLon0.15_PT147H.grib2 2026-04-11 16:46 684K
20260411T12Z_MSC_GDPS_GeopotentialHeight_IsbL-0650_LatLon0.15_PT147H.grib2 2026-04-11 16:46 685K
20260411T12Z_MSC_GDPS_GeopotentialHeight_IsbL-0700_LatLon0.15_PT147H.grib2 2026-04-11 16:46 686K
20260411T12Z_MSC_GDPS_GeopotentialHeight_IsbL-0750_LatLon0.15_PT147H.grib2 2026-04-11 16:46 689K
20260411T12Z_MSC_GDPS_GeopotentialHeight_IsbL-0800_LatLon0.15_PT147H.grib2 2026-04-11 16:46 698K
20260411T12Z_MSC_GDPS_GeopotentialHeight_IsbL-0850_LatLon0.15_PT147H.grib2 2026-04-11 16:46 706K
20260411T12Z_MSC_GDPS_GeopotentialHeight_IsbL-0875_LatLon0.15_PT147H.grib2 2026-04-11 16:46 712K
20260411T12Z_MSC_GDPS_GeopotentialHeight_IsbL-0900_LatLon0.15_PT147H.grib2 2026-04-11 16:46 719K
20260411T12Z_MSC_GDPS_GeopotentialHeight_IsbL-0925_LatLon0.15_PT147H.grib2 2026-04-11 16:46 728K
20260411T12Z_MSC_GDPS_GeopotentialHeight_IsbL-0950_LatLon0.15_PT147H.grib2 2026-04-11 16:46 739K
20260411T12Z_MSC_GDPS_GeopotentialHeight_IsbL-0970_LatLon0.15_PT147H.grib2 2026-04-11 16:46 750K
20260411T12Z_MSC_GDPS_GeopotentialHeight_IsbL-0985_LatLon0.15_PT147H.grib2 2026-04-11 16:46 767K
20260411T12Z_MSC_GDPS_GeopotentialHeight_IsbL-1000_LatLon0.15_PT147H.grib2 2026-04-11 16:46 789K
20260411T12Z_MSC_GDPS_GeopotentialHeight_IsbL-1015_LatLon0.15_PT147H.grib2 2026-04-11 16:46 812K
20260411T12Z_MSC_GDPS_Humidex_Sfc_LatLon0.15_PT147H.grib2 2026-04-11 16:46 5.3M
20260411T12Z_MSC_GDPS_IcePellets-Accum3h_Sfc_LatLon0.15_PT147H.grib2 2026-04-11 16:46 20K
20260411T12Z_MSC_GDPS_IcePellets-Accum_Sfc_LatLon0.15_PT147H.grib2 2026-04-11 16:46 151K
20260411T12Z_MSC_GDPS_KIndex_Sfc_LatLon0.15_PT147H.grib2 2026-04-11 16:46 6.5M
20260411T12Z_MSC_GDPS_LatentHeatNetFlux_Sfc_LatLon0.15_PT147H.grib2 2026-04-11 16:46 689K
20260411T12Z_MSC_GDPS_LiftedIndex-MU-VT_IsbL-0500_LatLon0.15_PT147H.grib2 2026-04-11 16:46 5.4M
20260411T12Z_MSC_GDPS_O3MixingRatio_LatLon0.15_PT147H.grib2 2026-04-11 17:07 2.3M
20260411T12Z_MSC_GDPS_O3_EAtm_LatLon0.15_PT147H.grib2 2026-04-11 17:07 2.1M
20260411T12Z_MSC_GDPS_PlanetaryBoundaryLayerHeight_Sfc_LatLon0.15_PT147H.grib2 2026-04-11 16:46 2.5M
20260411T12Z_MSC_GDPS_Precip-Accum3h_Sfc_LatLon0.15_PT147H.grib2 2026-04-11 16:46 3.5M
20260411T12Z_MSC_GDPS_Precip-Accum_Sfc_LatLon0.15_PT147H.grib2 2026-04-11 16:46 4.8M
20260411T12Z_MSC_GDPS_PrecipRate_Sfc_LatLon0.15_PT147H.grib2 2026-04-11 16:46 3.1M
20260411T12Z_MSC_GDPS_PrecipType-Instant_Sfc_LatLon0.15_PT147H.grib2 2026-04-11 16:46 1.5M
20260411T12Z_MSC_GDPS_Pressure_MSL_LatLon0.15_PT147H.grib2 2026-04-11 16:46 725K
20260411T12Z_MSC_GDPS_Pressure_PVU-1.5_LatLon0.15_PT147H.grib2 2026-04-11 16:46 5.8M
20260411T12Z_MSC_GDPS_Pressure_PVU-1_LatLon0.15_PT147H.grib2 2026-04-11 16:46 6.0M
20260411T12Z_MSC_GDPS_Pressure_PVU-2_LatLon0.15_PT147H.grib2 2026-04-11 16:46 5.6M
20260411T12Z_MSC_GDPS_Pressure_Sfc_LatLon0.15_PT147H.grib2 2026-04-11 16:46 1.1M
20260411T12Z_MSC_GDPS_RadiativeTemp_Sfc_LatLon0.15_PT147H.grib2 2026-04-11 16:46 678K
20260411T12Z_MSC_GDPS_Rain-Accum3h_Sfc_LatLon0.15_PT147H.grib2 2026-04-11 16:46 1.7M
20260411T12Z_MSC_GDPS_Rain-Accum_Sfc_LatLon0.15_PT147H.grib2 2026-04-11 16:46 3.9M
20260411T12Z_MSC_GDPS_RelativeHumidity_AGL-2m_LatLon0.15_PT147H.grib2 2026-04-11 16:46 1.1M
20260411T12Z_MSC_GDPS_RelativeHumidity_IsbL-0010_LatLon0.15_PT147H.grib2 2026-04-11 16:46 219K
20260411T12Z_MSC_GDPS_RelativeHumidity_IsbL-0020_LatLon0.15_PT147H.grib2 2026-04-11 16:46 362K
20260411T12Z_MSC_GDPS_RelativeHumidity_IsbL-0030_LatLon0.15_PT147H.grib2 2026-04-11 16:46 376K
20260411T12Z_MSC_GDPS_RelativeHumidity_IsbL-0050_LatLon0.15_PT147H.grib2 2026-04-11 16:46 318K
20260411T12Z_MSC_GDPS_RelativeHumidity_IsbL-0100_LatLon0.15_PT147H.grib2 2026-04-11 16:46 482K
20260411T12Z_MSC_GDPS_RelativeHumidity_IsbL-0150_LatLon0.15_PT147H.grib2 2026-04-11 16:46 645K
20260411T12Z_MSC_GDPS_RelativeHumidity_IsbL-0175_LatLon0.15_PT147H.grib2 2026-04-11 16:46 778K
20260411T12Z_MSC_GDPS_RelativeHumidity_IsbL-0200_LatLon0.15_PT147H.grib2 2026-04-11 16:46 682K
20260411T12Z_MSC_GDPS_RelativeHumidity_IsbL-0225_LatLon0.15_PT147H.grib2 2026-04-11 16:46 782K
20260411T12Z_MSC_GDPS_RelativeHumidity_IsbL-0250_LatLon0.15_PT147H.grib2 2026-04-11 16:46 871K
20260411T12Z_MSC_GDPS_RelativeHumidity_IsbL-0275_LatLon0.15_PT147H.grib2 2026-04-11 16:46 896K
20260411T12Z_MSC_GDPS_RelativeHumidity_IsbL-0300_LatLon0.15_PT147H.grib2 2026-04-11 16:46 939K
20260411T12Z_MSC_GDPS_RelativeHumidity_IsbL-0350_LatLon0.15_PT147H.grib2 2026-04-11 16:46 963K
20260411T12Z_MSC_GDPS_RelativeHumidity_IsbL-0400_LatLon0.15_PT147H.grib2 2026-04-11 16:46 1.0M
20260411T12Z_MSC_GDPS_RelativeHumidity_IsbL-0450_LatLon0.15_PT147H.grib2 2026-04-11 16:46 1.0M
20260411T12Z_MSC_GDPS_RelativeHumidity_IsbL-0500_LatLon0.15_PT147H.grib2 2026-04-11 16:46 1.0M
20260411T12Z_MSC_GDPS_RelativeHumidity_IsbL-0550_LatLon0.15_PT147H.grib2 2026-04-11 16:46 1.0M
20260411T12Z_MSC_GDPS_RelativeHumidity_IsbL-0600_LatLon0.15_PT147H.grib2 2026-04-11 16:46 1.1M
20260411T12Z_MSC_GDPS_RelativeHumidity_IsbL-0650_LatLon0.15_PT147H.grib2 2026-04-11 16:46 1.1M
20260411T12Z_MSC_GDPS_RelativeHumidity_IsbL-0700_LatLon0.15_PT147H.grib2 2026-04-11 16:46 1.1M
20260411T12Z_MSC_GDPS_RelativeHumidity_IsbL-0750_LatLon0.15_PT147H.grib2 2026-04-11 16:46 1.1M
20260411T12Z_MSC_GDPS_RelativeHumidity_IsbL-0800_LatLon0.15_PT147H.grib2 2026-04-11 16:46 1.2M
20260411T12Z_MSC_GDPS_RelativeHumidity_IsbL-0850_LatLon0.15_PT147H.grib2 2026-04-11 16:46 1.3M
20260411T12Z_MSC_GDPS_RelativeHumidity_IsbL-0875_LatLon0.15_PT147H.grib2 2026-04-11 16:46 1.3M
20260411T12Z_MSC_GDPS_RelativeHumidity_IsbL-0900_LatLon0.15_PT147H.grib2 2026-04-11 16:46 1.2M
20260411T12Z_MSC_GDPS_RelativeHumidity_IsbL-0925_LatLon0.15_PT147H.grib2 2026-04-11 16:46 1.2M
20260411T12Z_MSC_GDPS_RelativeHumidity_IsbL-0950_LatLon0.15_PT147H.grib2 2026-04-11 16:46 1.2M
20260411T12Z_MSC_GDPS_RelativeHumidity_IsbL-0970_LatLon0.15_PT147H.grib2 2026-04-11 16:46 1.2M
20260411T12Z_MSC_GDPS_RelativeHumidity_IsbL-0985_LatLon0.15_PT147H.grib2 2026-04-11 16:46 1.1M
20260411T12Z_MSC_GDPS_RelativeHumidity_IsbL-1000_LatLon0.15_PT147H.grib2 2026-04-11 16:46 1.1M
20260411T12Z_MSC_GDPS_RelativeHumidity_IsbL-1015_LatLon0.15_PT147H.grib2 2026-04-11 16:46 1.1M
20260411T12Z_MSC_GDPS_Runoff-Accum_Sfc_LatLon0.15_PT147H.grib2 2026-04-11 16:46 126K
20260411T12Z_MSC_GDPS_SensibleHeatNetFlux_Sfc_LatLon0.15_PT147H.grib2 2026-04-11 16:46 472K
20260411T12Z_MSC_GDPS_ShowalterIndex_IsbL-0500_LatLon0.15_PT147H.grib2 2026-04-11 16:46 6.2M
20260411T12Z_MSC_GDPS_Snow-Accum3h_Sfc_LatLon0.15_PT147H.grib2 2026-04-11 16:46 1.1M
20260411T12Z_MSC_GDPS_Snow-Accum_Sfc_LatLon0.15_PT147H.grib2 2026-04-11 16:46 2.0M
20260411T12Z_MSC_GDPS_SnowDepth_Sfc_LatLon0.15_PT147H.grib2 2026-04-11 16:46 1.8M
20260411T12Z_MSC_GDPS_SoilTemp_DBS-0to10cm_LatLon0.15_PT147H.grib2 2026-04-11 16:46 511K
20260411T12Z_MSC_GDPS_SoilTemp_Sfc_LatLon0.15_PT147H.grib2 2026-04-11 16:46 579K
20260411T12Z_MSC_GDPS_SoilVolumetricWaterContent_DBS-0to10cm_LatLon0.15_PT147H.grib2 2026-04-11 16:46 551K
20260411T12Z_MSC_GDPS_SoilVolumetricWaterContent_DBS-0to1cm_LatLon0.15_PT147H.grib2 2026-04-11 16:46 648K
20260411T12Z_MSC_GDPS_SpecificHumidity_AGL-120m_LatLon0.15_PT147H.grib2 2026-04-11 16:46 1.1M
20260411T12Z_MSC_GDPS_SpecificHumidity_AGL-2m_LatLon0.15_PT147H.grib2 2026-04-11 16:46 1.2M
20260411T12Z_MSC_GDPS_SpecificHumidity_AGL-40m_LatLon0.15_PT147H.grib2 2026-04-11 16:46 1.1M
20260411T12Z_MSC_GDPS_SpecificHumidity_AGL-80m_LatLon0.15_PT147H.grib2 2026-04-11 16:46 1.1M
20260411T12Z_MSC_GDPS_SpecificHumidity_IsbL-0001_LatLon0.15_PT147H.grib2 2026-04-11 16:46 1.1M
20260411T12Z_MSC_GDPS_SpecificHumidity_IsbL-0005_LatLon0.15_PT147H.grib2 2026-04-11 16:46 1.0M
20260411T12Z_MSC_GDPS_SpecificHumidity_IsbL-0010_LatLon0.15_PT147H.grib2 2026-04-11 16:46 1.2M
20260411T12Z_MSC_GDPS_SpecificHumidity_IsbL-0020_LatLon0.15_PT147H.grib2 2026-04-11 16:46 1.2M
20260411T12Z_MSC_GDPS_SpecificHumidity_IsbL-0030_LatLon0.15_PT147H.grib2 2026-04-11 16:46 1.6M
20260411T12Z_MSC_GDPS_SpecificHumidity_IsbL-0050_LatLon0.15_PT147H.grib2 2026-04-11 16:46 1.2M
20260411T12Z_MSC_GDPS_SpecificHumidity_IsbL-0100_LatLon0.15_PT147H.grib2 2026-04-11 16:46 1.6M
20260411T12Z_MSC_GDPS_SpecificHumidity_IsbL-0150_LatLon0.15_PT147H.grib2 2026-04-11 16:46 1.3M
20260411T12Z_MSC_GDPS_SpecificHumidity_IsbL-0175_LatLon0.15_PT147H.grib2 2026-04-11 16:46 1.3M
20260411T12Z_MSC_GDPS_SpecificHumidity_IsbL-0200_LatLon0.15_PT147H.grib2 2026-04-11 16:46 1.3M
20260411T12Z_MSC_GDPS_SpecificHumidity_IsbL-0225_LatLon0.15_PT147H.grib2 2026-04-11 16:46 1.3M
20260411T12Z_MSC_GDPS_SpecificHumidity_IsbL-0250_LatLon0.15_PT147H.grib2 2026-04-11 16:46 1.2M
20260411T12Z_MSC_GDPS_SpecificHumidity_IsbL-0275_LatLon0.15_PT147H.grib2 2026-04-11 16:46 1.3M
20260411T12Z_MSC_GDPS_SpecificHumidity_IsbL-0300_LatLon0.15_PT147H.grib2 2026-04-11 16:46 1.2M
20260411T12Z_MSC_GDPS_SpecificHumidity_IsbL-0350_LatLon0.15_PT147H.grib2 2026-04-11 16:46 1.2M
20260411T12Z_MSC_GDPS_SpecificHumidity_IsbL-0400_LatLon0.15_PT147H.grib2 2026-04-11 16:46 1.5M
20260411T12Z_MSC_GDPS_SpecificHumidity_IsbL-0450_LatLon0.15_PT147H.grib2 2026-04-11 16:46 1.3M
20260411T12Z_MSC_GDPS_SpecificHumidity_IsbL-0500_LatLon0.15_PT147H.grib2 2026-04-11 16:46 1.4M
20260411T12Z_MSC_GDPS_SpecificHumidity_IsbL-0550_LatLon0.15_PT147H.grib2 2026-04-11 16:46 1.6M
20260411T12Z_MSC_GDPS_SpecificHumidity_IsbL-0600_LatLon0.15_PT147H.grib2 2026-04-11 16:46 1.4M
20260411T12Z_MSC_GDPS_SpecificHumidity_IsbL-0650_LatLon0.15_PT147H.grib2 2026-04-11 16:46 1.5M
20260411T12Z_MSC_GDPS_SpecificHumidity_IsbL-0700_LatLon0.15_PT147H.grib2 2026-04-11 16:46 1.6M
20260411T12Z_MSC_GDPS_SpecificHumidity_IsbL-0750_LatLon0.15_PT147H.grib2 2026-04-11 16:46 1.7M
20260411T12Z_MSC_GDPS_SpecificHumidity_IsbL-0800_LatLon0.15_PT147H.grib2 2026-04-11 16:46 1.8M
20260411T12Z_MSC_GDPS_SpecificHumidity_IsbL-0850_LatLon0.15_PT147H.grib2 2026-04-11 16:46 1.9M
20260411T12Z_MSC_GDPS_SpecificHumidity_IsbL-0875_LatLon0.15_PT147H.grib2 2026-04-11 16:46 1.9M
20260411T12Z_MSC_GDPS_SpecificHumidity_IsbL-0900_LatLon0.15_PT147H.grib2 2026-04-11 16:46 1.6M
20260411T12Z_MSC_GDPS_SpecificHumidity_IsbL-0925_LatLon0.15_PT147H.grib2 2026-04-11 16:46 1.6M
20260411T12Z_MSC_GDPS_SpecificHumidity_IsbL-0950_LatLon0.15_PT147H.grib2 2026-04-11 16:46 1.5M
20260411T12Z_MSC_GDPS_SpecificHumidity_IsbL-0970_LatLon0.15_PT147H.grib2 2026-04-11 16:46 1.5M
20260411T12Z_MSC_GDPS_SpecificHumidity_IsbL-0985_LatLon0.15_PT147H.grib2 2026-04-11 16:46 1.5M
20260411T12Z_MSC_GDPS_SpecificHumidity_IsbL-1000_LatLon0.15_PT147H.grib2 2026-04-11 16:46 1.5M
20260411T12Z_MSC_GDPS_SpecificHumidity_IsbL-1015_LatLon0.15_PT147H.grib2 2026-04-11 16:46 1.4M
20260411T12Z_MSC_GDPS_SpecificHumidity_Sfc_LatLon0.15_PT147H.grib2 2026-04-11 16:46 582K
20260411T12Z_MSC_GDPS_Thickness_IsbL-0850to0700_LatLon0.15_PT147H.grib2 2026-04-11 16:46 467K
20260411T12Z_MSC_GDPS_Thickness_IsbL-1000to0500_LatLon0.15_PT147H.grib2 2026-04-11 16:46 374K
20260411T12Z_MSC_GDPS_Thickness_IsbL-1000to0850_LatLon0.15_PT147H.grib2 2026-04-11 16:46 493K
20260411T12Z_MSC_GDPS_TotalCloudCover_Sfc_LatLon0.15_PT147H.grib2 2026-04-11 16:46 828K
20260411T12Z_MSC_GDPS_TotalTotalsIndex_Sfc_LatLon0.15_PT147H.grib2 2026-04-11 16:46 6.2M
20260411T12Z_MSC_GDPS_UVIndex-ClearSky_Sfc_LatLon0.15_PT147H.grib2 2026-04-11 17:07 1.0M
20260411T12Z_MSC_GDPS_UVIndex_Sfc_LatLon0.15_PT147H.grib2 2026-04-11 17:07 1.5M
20260411T12Z_MSC_GDPS_UpwardLongwaveRadiationFlux_NTAtm_LatLon0.15_PT147H.grib2 2026-04-11 16:46 838K
20260411T12Z_MSC_GDPS_VerticalVelocity_IsbL-0500_LatLon0.15_PT147H.grib2 2026-04-11 16:46 1.3M
20260411T12Z_MSC_GDPS_VerticalVelocity_IsbL-0700_LatLon0.15_PT147H.grib2 2026-04-11 16:46 1.4M
20260411T12Z_MSC_GDPS_VerticalVelocity_IsbL-0850_LatLon0.15_PT147H.grib2 2026-04-11 16:46 1.6M
20260411T12Z_MSC_GDPS_WindChill_Sfc_LatLon0.15_PT147H.grib2 2026-04-11 16:46 5.4M
20260411T12Z_MSC_GDPS_WindDir_AGL-10m_LatLon0.15_PT147H.grib2 2026-04-11 16:46 1.4M
20260411T12Z_MSC_GDPS_WindDir_AGL-120m_LatLon0.15_PT147H.grib2 2026-04-11 16:46 1.4M
20260411T12Z_MSC_GDPS_WindDir_AGL-40m_LatLon0.15_PT147H.grib2 2026-04-11 16:46 1.4M
20260411T12Z_MSC_GDPS_WindDir_AGL-80m_LatLon0.15_PT147H.grib2 2026-04-11 16:46 1.4M
20260411T12Z_MSC_GDPS_WindDir_IsbL-0001_LatLon0.15_PT147H.grib2 2026-04-11 16:46 636K
20260411T12Z_MSC_GDPS_WindDir_IsbL-0005_LatLon0.15_PT147H.grib2 2026-04-11 16:46 770K
20260411T12Z_MSC_GDPS_WindDir_IsbL-0010_LatLon0.15_PT147H.grib2 2026-04-11 16:46 827K
20260411T12Z_MSC_GDPS_WindDir_IsbL-0020_LatLon0.15_PT147H.grib2 2026-04-11 16:46 915K
20260411T12Z_MSC_GDPS_WindDir_IsbL-0030_LatLon0.15_PT147H.grib2 2026-04-11 16:46 875K
20260411T12Z_MSC_GDPS_WindDir_IsbL-0050_LatLon0.15_PT147H.grib2 2026-04-11 16:46 929K
20260411T12Z_MSC_GDPS_WindDir_IsbL-0100_LatLon0.15_PT147H.grib2 2026-04-11 16:46 1.0M
20260411T12Z_MSC_GDPS_WindDir_IsbL-0150_LatLon0.15_PT147H.grib2 2026-04-11 16:46 1.0M
20260411T12Z_MSC_GDPS_WindDir_IsbL-0175_LatLon0.15_PT147H.grib2 2026-04-11 16:46 1.0M
20260411T12Z_MSC_GDPS_WindDir_IsbL-0200_LatLon0.15_PT147H.grib2 2026-04-11 16:46 1.1M
20260411T12Z_MSC_GDPS_WindDir_IsbL-0225_LatLon0.15_PT147H.grib2 2026-04-11 16:46 1.1M
20260411T12Z_MSC_GDPS_WindDir_IsbL-0250_LatLon0.15_PT147H.grib2 2026-04-11 16:46 1.1M
20260411T12Z_MSC_GDPS_WindDir_IsbL-0275_LatLon0.15_PT147H.grib2 2026-04-11 16:46 1.2M
20260411T12Z_MSC_GDPS_WindDir_IsbL-0300_LatLon0.15_PT147H.grib2 2026-04-11 16:46 1.2M
20260411T12Z_MSC_GDPS_WindDir_IsbL-0350_LatLon0.15_PT147H.grib2 2026-04-11 16:46 1.2M
20260411T12Z_MSC_GDPS_WindDir_IsbL-0400_LatLon0.15_PT147H.grib2 2026-04-11 16:46 1.3M
20260411T12Z_MSC_GDPS_WindDir_IsbL-0450_LatLon0.15_PT147H.grib2 2026-04-11 16:46 1.3M
20260411T12Z_MSC_GDPS_WindDir_IsbL-0500_LatLon0.15_PT147H.grib2 2026-04-11 16:46 1.4M
20260411T12Z_MSC_GDPS_WindDir_IsbL-0550_LatLon0.15_PT147H.grib2 2026-04-11 16:46 1.4M
20260411T12Z_MSC_GDPS_WindDir_IsbL-0600_LatLon0.15_PT147H.grib2 2026-04-11 16:46 1.5M
20260411T12Z_MSC_GDPS_WindDir_IsbL-0650_LatLon0.15_PT147H.grib2 2026-04-11 16:46 1.6M
20260411T12Z_MSC_GDPS_WindDir_IsbL-0700_LatLon0.15_PT147H.grib2 2026-04-11 16:46 1.6M
20260411T12Z_MSC_GDPS_WindDir_IsbL-0750_LatLon0.15_PT147H.grib2 2026-04-11 16:46 1.7M
20260411T12Z_MSC_GDPS_WindDir_IsbL-0800_LatLon0.15_PT147H.grib2 2026-04-11 16:46 1.9M
20260411T12Z_MSC_GDPS_WindDir_IsbL-0850_LatLon0.15_PT147H.grib2 2026-04-11 16:46 2.0M
20260411T12Z_MSC_GDPS_WindDir_IsbL-0875_LatLon0.15_PT147H.grib2 2026-04-11 16:46 2.0M
20260411T12Z_MSC_GDPS_WindDir_IsbL-0900_LatLon0.15_PT147H.grib2 2026-04-11 16:46 2.0M
20260411T12Z_MSC_GDPS_WindDir_IsbL-0925_LatLon0.15_PT147H.grib2 2026-04-11 16:46 2.0M
20260411T12Z_MSC_GDPS_WindDir_IsbL-0950_LatLon0.15_PT147H.grib2 2026-04-11 16:46 2.0M
20260411T12Z_MSC_GDPS_WindDir_IsbL-0970_LatLon0.15_PT147H.grib2 2026-04-11 16:46 2.0M
20260411T12Z_MSC_GDPS_WindDir_IsbL-0985_LatLon0.15_PT147H.grib2 2026-04-11 16:46 2.1M
20260411T12Z_MSC_GDPS_WindDir_IsbL-1000_LatLon0.15_PT147H.grib2 2026-04-11 16:46 2.1M
20260411T12Z_MSC_GDPS_WindDir_IsbL-1015_LatLon0.15_PT147H.grib2 2026-04-11 16:46 2.1M
20260411T12Z_MSC_GDPS_WindGust-Max_AGL-10m_LatLon0.15_PT147H.grib2 2026-04-11 16:46 2.2M
20260411T12Z_MSC_GDPS_WindGust-Min_AGL-10m_LatLon0.15_PT147H.grib2 2026-04-11 16:46 2.2M
20260411T12Z_MSC_GDPS_WindGust_AGL-10m_LatLon0.15_PT147H.grib2 2026-04-11 16:46 2.1M
20260411T12Z_MSC_GDPS_WindSpeed_AGL-10m_LatLon0.15_PT147H.grib2 2026-04-11 16:46 1.1M
20260411T12Z_MSC_GDPS_WindSpeed_AGL-120m_LatLon0.15_PT147H.grib2 2026-04-11 16:46 1.2M
20260411T12Z_MSC_GDPS_WindSpeed_AGL-40m_LatLon0.15_PT147H.grib2 2026-04-11 16:46 1.2M
20260411T12Z_MSC_GDPS_WindSpeed_AGL-80m_LatLon0.15_PT147H.grib2 2026-04-11 16:46 1.2M
20260411T12Z_MSC_GDPS_WindSpeed_IsbL-0001_LatLon0.15_PT147H.grib2 2026-04-11 16:46 629K
20260411T12Z_MSC_GDPS_WindSpeed_IsbL-0005_LatLon0.15_PT147H.grib2 2026-04-11 16:46 678K
20260411T12Z_MSC_GDPS_WindSpeed_IsbL-0010_LatLon0.15_PT147H.grib2 2026-04-11 16:46 618K
20260411T12Z_MSC_GDPS_WindSpeed_IsbL-0020_LatLon0.15_PT147H.grib2 2026-04-11 16:46 854K
20260411T12Z_MSC_GDPS_WindSpeed_IsbL-0030_LatLon0.15_PT147H.grib2 2026-04-11 16:46 853K
20260411T12Z_MSC_GDPS_WindSpeed_IsbL-0050_LatLon0.15_PT147H.grib2 2026-04-11 16:46 910K
20260411T12Z_MSC_GDPS_WindSpeed_IsbL-0100_LatLon0.15_PT147H.grib2 2026-04-11 16:46 1.1M
20260411T12Z_MSC_GDPS_WindSpeed_IsbL-0150_LatLon0.15_PT147H.grib2 2026-04-11 16:46 1.0M
20260411T12Z_MSC_GDPS_WindSpeed_IsbL-0175_LatLon0.15_PT147H.grib2 2026-04-11 16:46 1.0M
20260411T12Z_MSC_GDPS_WindSpeed_IsbL-0200_LatLon0.15_PT147H.grib2 2026-04-11 16:46 1.0M
20260411T12Z_MSC_GDPS_WindSpeed_IsbL-0225_LatLon0.15_PT147H.grib2 2026-04-11 16:46 1.1M
20260411T12Z_MSC_GDPS_WindSpeed_IsbL-0250_LatLon0.15_PT147H.grib2 2026-04-11 16:46 1.1M
20260411T12Z_MSC_GDPS_WindSpeed_IsbL-0275_LatLon0.15_PT147H.grib2 2026-04-11 16:46 1.1M
20260411T12Z_MSC_GDPS_WindSpeed_IsbL-0300_LatLon0.15_PT147H.grib2 2026-04-11 16:46 1.1M
20260411T12Z_MSC_GDPS_WindSpeed_IsbL-0350_LatLon0.15_PT147H.grib2 2026-04-11 16:46 1.1M
20260411T12Z_MSC_GDPS_WindSpeed_IsbL-0400_LatLon0.15_PT147H.grib2 2026-04-11 16:46 1.1M
20260411T12Z_MSC_GDPS_WindSpeed_IsbL-0450_LatLon0.15_PT147H.grib2 2026-04-11 16:46 1.1M
20260411T12Z_MSC_GDPS_WindSpeed_IsbL-0500_LatLon0.15_PT147H.grib2 2026-04-11 16:46 1.1M
20260411T12Z_MSC_GDPS_WindSpeed_IsbL-0550_LatLon0.15_PT147H.grib2 2026-04-11 16:46 1.1M
20260411T12Z_MSC_GDPS_WindSpeed_IsbL-0600_LatLon0.15_PT147H.grib2 2026-04-11 16:46 1.4M
20260411T12Z_MSC_GDPS_WindSpeed_IsbL-0650_LatLon0.15_PT147H.grib2 2026-04-11 16:46 1.4M
20260411T12Z_MSC_GDPS_WindSpeed_IsbL-0700_LatLon0.15_PT147H.grib2 2026-04-11 16:46 1.5M
20260411T12Z_MSC_GDPS_WindSpeed_IsbL-0750_LatLon0.15_PT147H.grib2 2026-04-11 16:46 1.5M
20260411T12Z_MSC_GDPS_WindSpeed_IsbL-0800_LatLon0.15_PT147H.grib2 2026-04-11 16:46 1.6M
20260411T12Z_MSC_GDPS_WindSpeed_IsbL-0850_LatLon0.15_PT147H.grib2 2026-04-11 16:46 1.7M
20260411T12Z_MSC_GDPS_WindSpeed_IsbL-0875_LatLon0.15_PT147H.grib2 2026-04-11 16:46 1.8M
20260411T12Z_MSC_GDPS_WindSpeed_IsbL-0900_LatLon0.15_PT147H.grib2 2026-04-11 16:46 1.8M
20260411T12Z_MSC_GDPS_WindSpeed_IsbL-0925_LatLon0.15_PT147H.grib2 2026-04-11 16:46 1.8M
20260411T12Z_MSC_GDPS_WindSpeed_IsbL-0950_LatLon0.15_PT147H.grib2 2026-04-11 16:46 1.9M
20260411T12Z_MSC_GDPS_WindSpeed_IsbL-0970_LatLon0.15_PT147H.grib2 2026-04-11 16:46 1.9M
20260411T12Z_MSC_GDPS_WindSpeed_IsbL-0985_LatLon0.15_PT147H.grib2 2026-04-11 16:46 1.9M
20260411T12Z_MSC_GDPS_WindSpeed_IsbL-1000_LatLon0.15_PT147H.grib2 2026-04-11 16:46 1.9M
20260411T12Z_MSC_GDPS_WindSpeed_IsbL-1015_LatLon0.15_PT147H.grib2 2026-04-11 16:46 1.8M
20260411T12Z_MSC_GDPS_WindU_AGL-10m_LatLon0.15_PT147H.grib2 2026-04-11 16:46 1.3M
20260411T12Z_MSC_GDPS_WindU_AGL-120m_LatLon0.15_PT147H.grib2 2026-04-11 16:46 1.0M
20260411T12Z_MSC_GDPS_WindU_AGL-40m_LatLon0.15_PT147H.grib2 2026-04-11 16:46 1.0M
20260411T12Z_MSC_GDPS_WindU_AGL-80m_LatLon0.15_PT147H.grib2 2026-04-11 16:46 1.0M
20260411T12Z_MSC_GDPS_WindU_IsbL-0001_LatLon0.15_PT147H.grib2 2026-04-11 16:46 634K
20260411T12Z_MSC_GDPS_WindU_IsbL-0005_LatLon0.15_PT147H.grib2 2026-04-11 16:46 680K
20260411T12Z_MSC_GDPS_WindU_IsbL-0010_LatLon0.15_PT147H.grib2 2026-04-11 16:46 693K
20260411T12Z_MSC_GDPS_WindU_IsbL-0020_LatLon0.15_PT147H.grib2 2026-04-11 16:46 730K
20260411T12Z_MSC_GDPS_WindU_IsbL-0030_LatLon0.15_PT147H.grib2 2026-04-11 16:46 730K
20260411T12Z_MSC_GDPS_WindU_IsbL-0050_LatLon0.15_PT147H.grib2 2026-04-11 16:46 699K
20260411T12Z_MSC_GDPS_WindU_IsbL-0100_LatLon0.15_PT147H.grib2 2026-04-11 16:46 926K
20260411T12Z_MSC_GDPS_WindU_IsbL-0150_LatLon0.15_PT147H.grib2 2026-04-11 16:46 1.0M
20260411T12Z_MSC_GDPS_WindU_IsbL-0175_LatLon0.15_PT147H.grib2 2026-04-11 16:46 808K
20260411T12Z_MSC_GDPS_WindU_IsbL-0200_LatLon0.15_PT147H.grib2 2026-04-11 16:46 839K
20260411T12Z_MSC_GDPS_WindU_IsbL-0225_LatLon0.15_PT147H.grib2 2026-04-11 16:46 1.1M
20260411T12Z_MSC_GDPS_WindU_IsbL-0250_LatLon0.15_PT147H.grib2 2026-04-11 16:46 855K
20260411T12Z_MSC_GDPS_WindU_IsbL-0275_LatLon0.15_PT147H.grib2 2026-04-11 16:46 884K
20260411T12Z_MSC_GDPS_WindU_IsbL-0300_LatLon0.15_PT147H.grib2 2026-04-11 16:46 876K
20260411T12Z_MSC_GDPS_WindU_IsbL-0350_LatLon0.15_PT147H.grib2 2026-04-11 16:46 1.1M
20260411T12Z_MSC_GDPS_WindU_IsbL-0400_LatLon0.15_PT147H.grib2 2026-04-11 16:46 888K
20260411T12Z_MSC_GDPS_WindU_IsbL-0450_LatLon0.15_PT147H.grib2 2026-04-11 16:46 886K
20260411T12Z_MSC_GDPS_WindU_IsbL-0500_LatLon0.15_PT147H.grib2 2026-04-11 16:46 1.1M
20260411T12Z_MSC_GDPS_WindU_IsbL-0550_LatLon0.15_PT147H.grib2 2026-04-11 16:46 1.1M
20260411T12Z_MSC_GDPS_WindU_IsbL-0600_LatLon0.15_PT147H.grib2 2026-04-11 16:46 1.1M
20260411T12Z_MSC_GDPS_WindU_IsbL-0650_LatLon0.15_PT147H.grib2 2026-04-11 16:46 1.2M
20260411T12Z_MSC_GDPS_WindU_IsbL-0700_LatLon0.15_PT147H.grib2 2026-04-11 16:46 1.2M
20260411T12Z_MSC_GDPS_WindU_IsbL-0750_LatLon0.15_PT147H.grib2 2026-04-11 16:46 1.3M
20260411T12Z_MSC_GDPS_WindU_IsbL-0800_LatLon0.15_PT147H.grib2 2026-04-11 16:46 1.3M
20260411T12Z_MSC_GDPS_WindU_IsbL-0850_LatLon0.15_PT147H.grib2 2026-04-11 16:46 1.4M
20260411T12Z_MSC_GDPS_WindU_IsbL-0875_LatLon0.15_PT147H.grib2 2026-04-11 16:46 1.5M
20260411T12Z_MSC_GDPS_WindU_IsbL-0900_LatLon0.15_PT147H.grib2 2026-04-11 16:46 1.5M
20260411T12Z_MSC_GDPS_WindU_IsbL-0925_LatLon0.15_PT147H.grib2 2026-04-11 16:46 1.5M
20260411T12Z_MSC_GDPS_WindU_IsbL-0950_LatLon0.15_PT147H.grib2 2026-04-11 16:46 1.4M
20260411T12Z_MSC_GDPS_WindU_IsbL-0970_LatLon0.15_PT147H.grib2 2026-04-11 16:46 1.4M
20260411T12Z_MSC_GDPS_WindU_IsbL-0985_LatLon0.15_PT147H.grib2 2026-04-11 16:46 1.4M
20260411T12Z_MSC_GDPS_WindU_IsbL-1000_LatLon0.15_PT147H.grib2 2026-04-11 16:46 1.4M
20260411T12Z_MSC_GDPS_WindU_IsbL-1015_LatLon0.15_PT147H.grib2 2026-04-11 16:46 1.3M
20260411T12Z_MSC_GDPS_WindV_AGL-10m_LatLon0.15_PT147H.grib2 2026-04-11 16:46 1.6M
20260411T12Z_MSC_GDPS_WindV_AGL-120m_LatLon0.15_PT147H.grib2 2026-04-11 16:46 1.0M
20260411T12Z_MSC_GDPS_WindV_AGL-40m_LatLon0.15_PT147H.grib2 2026-04-11 16:46 973K
20260411T12Z_MSC_GDPS_WindV_AGL-80m_LatLon0.15_PT147H.grib2 2026-04-11 16:46 1.0M
20260411T12Z_MSC_GDPS_WindV_IsbL-0001_LatLon0.15_PT147H.grib2 2026-04-11 16:46 754K
20260411T12Z_MSC_GDPS_WindV_IsbL-0005_LatLon0.15_PT147H.grib2 2026-04-11 16:46 766K
20260411T12Z_MSC_GDPS_WindV_IsbL-0010_LatLon0.15_PT147H.grib2 2026-04-11 16:46 794K
20260411T12Z_MSC_GDPS_WindV_IsbL-0020_LatLon0.15_PT147H.grib2 2026-04-11 16:46 848K
20260411T12Z_MSC_GDPS_WindV_IsbL-0030_LatLon0.15_PT147H.grib2 2026-04-11 16:46 848K
20260411T12Z_MSC_GDPS_WindV_IsbL-0050_LatLon0.15_PT147H.grib2 2026-04-11 16:46 901K
20260411T12Z_MSC_GDPS_WindV_IsbL-0100_LatLon0.15_PT147H.grib2 2026-04-11 16:46 855K
20260411T12Z_MSC_GDPS_WindV_IsbL-0150_LatLon0.15_PT147H.grib2 2026-04-11 16:46 1.0M
20260411T12Z_MSC_GDPS_WindV_IsbL-0175_LatLon0.15_PT147H.grib2 2026-04-11 16:46 1.0M
20260411T12Z_MSC_GDPS_WindV_IsbL-0200_LatLon0.15_PT147H.grib2 2026-04-11 16:46 1.0M
20260411T12Z_MSC_GDPS_WindV_IsbL-0225_LatLon0.15_PT147H.grib2 2026-04-11 16:46 848K
20260411T12Z_MSC_GDPS_WindV_IsbL-0250_LatLon0.15_PT147H.grib2 2026-04-11 16:46 849K
20260411T12Z_MSC_GDPS_WindV_IsbL-0275_LatLon0.15_PT147H.grib2 2026-04-11 16:46 878K
20260411T12Z_MSC_GDPS_WindV_IsbL-0300_LatLon0.15_PT147H.grib2 2026-04-11 16:46 868K
20260411T12Z_MSC_GDPS_WindV_IsbL-0350_LatLon0.15_PT147H.grib2 2026-04-11 16:46 880K
20260411T12Z_MSC_GDPS_WindV_IsbL-0400_LatLon0.15_PT147H.grib2 2026-04-11 16:46 879K
20260411T12Z_MSC_GDPS_WindV_IsbL-0450_LatLon0.15_PT147H.grib2 2026-04-11 16:46 876K
20260411T12Z_MSC_GDPS_WindV_IsbL-0500_LatLon0.15_PT147H.grib2 2026-04-11 16:46 1.1M
20260411T12Z_MSC_GDPS_WindV_IsbL-0550_LatLon0.15_PT147H.grib2 2026-04-11 16:46 1.1M
20260411T12Z_MSC_GDPS_WindV_IsbL-0600_LatLon0.15_PT147H.grib2 2026-04-11 16:46 1.1M
20260411T12Z_MSC_GDPS_WindV_IsbL-0650_LatLon0.15_PT147H.grib2 2026-04-11 16:46 1.2M
20260411T12Z_MSC_GDPS_WindV_IsbL-0700_LatLon0.15_PT147H.grib2 2026-04-11 16:46 1.2M
20260411T12Z_MSC_GDPS_WindV_IsbL-0750_LatLon0.15_PT147H.grib2 2026-04-11 16:46 1.3M
20260411T12Z_MSC_GDPS_WindV_IsbL-0800_LatLon0.15_PT147H.grib2 2026-04-11 16:46 1.3M
20260411T12Z_MSC_GDPS_WindV_IsbL-0850_LatLon0.15_PT147H.grib2 2026-04-11 16:46 1.4M
20260411T12Z_MSC_GDPS_WindV_IsbL-0875_LatLon0.15_PT147H.grib2 2026-04-11 16:46 1.4M
20260411T12Z_MSC_GDPS_WindV_IsbL-0900_LatLon0.15_PT147H.grib2 2026-04-11 16:46 1.5M
20260411T12Z_MSC_GDPS_WindV_IsbL-0925_LatLon0.15_PT147H.grib2 2026-04-11 16:46 1.5M
20260411T12Z_MSC_GDPS_WindV_IsbL-0950_LatLon0.15_PT147H.grib2 2026-04-11 16:46 1.4M
20260411T12Z_MSC_GDPS_WindV_IsbL-0970_LatLon0.15_PT147H.grib2 2026-04-11 16:46 1.4M
20260411T12Z_MSC_GDPS_WindV_IsbL-0985_LatLon0.15_PT147H.grib2 2026-04-11 16:46 1.4M
20260411T12Z_MSC_GDPS_WindV_IsbL-1000_LatLon0.15_PT147H.grib2 2026-04-11 16:46 1.7M
20260411T12Z_MSC_GDPS_WindV_IsbL-1015_LatLon0.15_PT147H.grib2 2026-04-11 16:46 1.7M